TimeEDT,TemperatureF,Dew PointF,Humidity,Sea Level PressureIn,VisibilityMPH,Wind Direction,Wind SpeedMPH,Gust SpeedMPH,PrecipitationIn,Events,Conditions,WindDirDegrees,DateUTC
12:54 AM,59.0,53.1,81,29.99,10.0,South,5.8,-,N/A,,Scattered Clouds,170,2012-10-25 04:54:00
1:54 AM,57.9,53.1,84,29.98,10.0,South,5.8,-,N/A,,Partly Cloudy,180,2012-10-25 05:54:00
2:54 AM,57.9,52.0,81,29.97,10.0,South,6.9,-,N/A,,Partly Cloudy,180,2012-10-25 06:54:00
3:54 AM,57.9,53.1,84,29.96,10.0,South,4.6,-,N/A,,Partly Cloudy,180,2012-10-25 07:54:00
4:54 AM,57.9,52.0,81,29.96,10.0,South,5.8,-,N/A,,Scattered Clouds,170,2012-10-25 08:54:00
5:54 AM,55.9,52.0,87,29.96,10.0,South,8.1,-,N/A,,Mostly Cloudy,170,2012-10-25 09:54:00
6:54 AM,55.9,52.0,87,29.97,10.0,South,6.9,-,N/A,,Scattered Clouds,170,2012-10-25 10:54:00
7:54 AM,54.0,51.1,90,29.97,10.0,SSE,5.8,-,N/A,,Partly Cloudy,150,2012-10-25 11:54:00
9:54 AM,64.0,53.6,69,30.00,10.0,South,11.5,-,N/A,,Partly Cloudy,190,2012-10-25 13:54:00
10:54 AM,68.0,57.0,68,29.99,10.0,South,16.1,-,N/A,,Partly Cloudy,190,2012-10-25 14:54:00
11:54 AM,72.0,57.9,61,29.97,10.0,SSW,18.4,24.2,N/A,,Partly Cloudy,210,2012-10-25 15:54:00
12:54 PM,75.0,57.9,55,29.94,10.0,SSW,21.9,28.8,N/A,,Scattered Clouds,200,2012-10-25 16:54:00
1:54 PM,75.0,57.9,55,29.91,10.0,SSW,20.7,27.6,N/A,,Scattered Clouds,210,2012-10-25 17:54:00
2:54 PM,75.9,55.9,50,29.89,10.0,South,20.7,28.8,N/A,,Scattered Clouds,190,2012-10-25 18:54:00
3:54 PM,75.0,55.0,50,29.88,10.0,SSW,18.4,27.6,N/A,,Scattered Clouds,200,2012-10-25 19:54:00
4:54 PM,73.9,55.0,52,29.87,10.0,South,23.0,27.6,N/A,,Scattered Clouds,180,2012-10-25 20:54:00
5:54 PM,73.9,55.9,53,29.86,10.0,South,20.7,26.5,N/A,,Scattered Clouds,180,2012-10-25 21:54:00
6:54 PM,71.1,55.0,57,29.88,10.0,South,13.8,-,N/A,,Partly Cloudy,190,2012-10-25 22:54:00
7:54 PM,69.1,55.0,61,29.88,10.0,South,15.0,-,N/A,,Partly Cloudy,180,2012-10-25 23:54:00
8:54 PM,66.9,55.0,66,29.89,10.0,South,12.7,-,N/A,,Scattered Clouds,180,2012-10-26 00:54:00
9:54 PM,66.0,55.0,68,29.88,10.0,South,11.5,-,N/A,,Mostly Cloudy,180,2012-10-26 01:54:00
10:54 PM,66.0,55.0,68,29.88,10.0,South,12.7,-,N/A,,Mostly Cloudy,190,2012-10-26 02:54:00
11:54 PM,66.9,55.0,66,29.88,10.0,South,12.7,-,N/A,,Mostly Cloudy,180,2012-10-26 03:54:00